F1GZH-2 Weather Reports


Display with metric or nautical units.
time (UTC)temp
F
wind
direction
speed
MPH
gust
MPH
rain 1hr
in
rain 24hr
in
rain mn
in
humidity
%
barometer
mb
20260507150934 60 90 0.0 2.0 0.00 0.00 0.00 76 1021.1
20260507144933 59 112 0.0 2.0 0.00 0.00 0.00 75 1021.1
20260507142932 59 112 0.0 3.0 0.00 0.00 0.00 77 1021.3
20260507140931 59 67 0.0 2.0 0.00 0.00 0.00 77 1021.4
20260507134929 58 45 0.0 3.0 0.00 0.00 0.00 78 1021.6
20260507132928 56 45 1.0 2.0 0.00 0.00 0.00 78 1021.6
20260507130927 55 67 0.0 0.0 0.00 0.00 0.00 78 1021.5
20260507124926 56 22 0.0 5.0 0.00 0.00 0.00 78 1021.5
20260507122925 59 0 2.0 2.0 0.00 0.00 0.00 77 1021.5
20260507120924 61 45 1.0 2.0 0.00 0.00 0.00 75 1021.5
20260507114923 62 45 0.0 4.0 0.00 0.00 0.00 76 1021.4
20260507112922 61 45 0.0 2.0 0.00 0.00 0.00 77 1021.6
20260507110920 58 0 0.0 0.0 0.00 0.00 0.00 71 1021.5
20260507104919 56 0 1.0 2.0 0.00 0.00 0.00 72 1021.6
20260507102918 58 225 0.0 2.0 0.00 0.00 0.00 73 1021.5
20260507100917 62 22 0.0 2.0 0.00 0.00 0.00 72 1021.5
20260507094916 61 0 0.0 0.0 0.00 0.00 0.00 45 1021.4
20260507092915 57 270 0.0 0.0 0.00 0.00 0.00 18 1021.3
20260507090914 55 22 0.0 0.0 0.00 0.00 0.00 10 1021.3
20260507084912 54 22 0.0 0.0 0.00 0.00 0.00 10 1021.1
20260507082911 52 315 0.0 0.0 0.00 0.00 0.00 10 1021.1
20260507080910 52 0 0.0 0.0 0.00 0.00 0.00 10 1020.9
20260507074909 52 247 0.0 0.0 0.00 0.00 0.00 10 1020.9
20260506170451 51 315 0.0 2.0 0.00 0.00 0.00 74 1015.6
20260506164450 52 0 1.0 4.0 0.00 0.00 0.00 77 1015.5
20260506162449 53 22 2.0 5.0 0.00 0.00 0.00 78 1015.5
20260506160448 55 315 0.0 3.0 0.00 0.00 0.00 78 1015.3
20260506154447 55 337 0.0 6.0 0.00 0.00 0.00 78 1015.2